CAPE
3265 3209 3088 3018 3094 3034 2714 2601 2945 3307 2868 2529 2379 2190 2052 2025 2133 2397 2473 2310 1997 1841 1853 1630 1611 1807 1732 1590 1555 1646 1366 1178 1108 1176 1286 1041 1184 1023 879 811 436 316 250
2974 2786 3128 3100 3202 3173 3215 2888 3053 2876 2619 1741 1148 1152 1438 1877 2079 2268 2208 2400 2324 2234 2175 1887 1726 1693 1685 1657 1739 1610 1387 1377 1458 1193 1136 1409 1169 1149 1003 702 653 452 319
2823 2734 2967 2985 3087 2998 3235 2998 2822 2763 2455 1488 284 49 192 933 1845 2111 2126 2197 1983 2049 2324 2209 2057 1852 1896 2008 2148 1743 1599 1771 1532 1422 1354 1491 1560 1579 1379 1144 703 731 608
2859 2748 2667 2957 3138 3102 2833 2733 2573 2190 1662 1036 581 84 82 515 501 1523 1628 1661 1425 1329 1605 2231 2313 2058 2007 2091 1951 2024 1895 1773 1760 1721 1690 1492 1703 1401 1472 1293 1088 1035 911
2966 2731 2509 2665 2515 2572 2468 2229 1839 1520 1103 1399 1074 555 53 257 414 1031 1573 1112 743 951 1119 1662 2373 2417 2213 2231 2282 2323 2140 1988 1839 1803 1848 1780 1712 1529 1442 1505 1392 1288 1227
2618 2671 3307 2937 2607 2502 2322 1868 1106 2327 2356 1948 1590 1120 820 777 826 679 512 295 308 509 479 496 718 1407 2257 2347 2445 2363 2212 2110 1910 1833 1916 1883 1489 1618 1612 1556 1402 1378 1302
3213 3728 3865 3986 3201 2874 3002 2917 3261 2744 2360 2040 1686 1185 793 368 173 123 129 129 238 344 336 386 424 752 1138 2215 2200 2426 2597 2474 2212 1767 1787 1873 1874 1728 1640 1557 1503 1456 1426
2905 3681 3663 3563 3790 3396 2812 2754 2655 2009 864 391 257 304 2 0 0 0 0 29 30 48 170 115 285 610 1219 2114 2203 2209 2436 2449 2372 2086 1962 1894 1733 1666 1588 1495 1455 1346 1423
2454 3367 3793 3537 3535 3380 2973 2220 1477 1180 891 400 33 64 33 0 0 0 366 0 0 4 1 191 851 1473 1569 2422 2416 2440 2579 2340 2124 2199 1610 1685 2000 1779 1859 1864 1750 1492 1320
2205 2469 2686 2358 2629 3401 3426 2715 2286 2078 1882 615 216 3 249 8 17 302 500 561 719 334 9 239 987 2228 2564 2148 2014 1129 1083 1321 1686 2036 1734 1764 1685 1670 1486 1356 1491 1555 1349
1448 1474 1658 1829 2323 2381 2567 2540 3061 2692 2398 2486 1143 456 820 850 1047 1069 965 728 870 878 941 1051 1818 2258 2555 2895 2587 307 0 5 53 215 778 1538 1683 1798 1518 1295 1273 1324 1294
563 674 753 875 1043 1183 1564 2074 2510 2513 2798 2748 2390 2166 2264 2423 2398 1939 1440 1030 953 1029 1186 1616 1824 1973 1848 2055 2531 2568 1892 634 57 187 424 1388 1721 1662 1612 1555 1572 1455 1117
298 186 351 566 717 784 751 776 798 1675 2546 2320 2095 2023 1810 1626 1642 1476 1589 1091 947 1324 1180 746 828 1162 1419 1530 1525 1792 2080 2390 2001 1096 1279 1214 1313 1263 1225 1259 1079 966 836
369 495 492 409 396 386 387 431 379 261 350 1650 2027 1765 1568 1527 1535 1391 1362 1285 1097 1186 1049 316 712 1025 988 1014 1147 1389 1632 1914 2254 1853 1573 1394 1098 1491 1558 1216 996 761 521
0 6 48 35 9 2 55 97 74 99 164 106 640 1376 1418 1390 1353 1110 1176 1163 1261 1209 584 591 1019 989 501 549 738 901 1198 1445 1701 1697 1684 1484 1236 1351 1136 971 511 341 225
0 0 0 0 0 0 0 0 6 31 55 9 13 12 33 258 1065 921 693 955 1249 1122 1210 1211 1336 1012 665 587 604 639 729 880 1040 1226 1319 1310 1069 1034 870 422 232 148 90
3 4 0 0 0 2 5 0 0 0 1 58 6 35 30 0 0 75 461 494 452 979 539 521 887 1005 1012 884 779 731 731 593 717 963 892 1032 903 871 549 322 270 145 105
12 13 12 2 21 18 5 4 4 13 3 0 24 145 48 55 47 36 39 57 65 140 239 260 345 652 754 1003 986 952 990 944 866 1005 973 816 694 570 366 258 210 108 114
13 12 15 22 23 25 25 22 8 1 0 14 204 204 310 337 323 190 87 42 31 78 126 192 318 447 428 415 832 856 812 858 936 1004 1012 768 652 548 395 346 263 225 179
4 0 0 8 8 2 3 1 3 1 0 0 99 319 429 447 466 477 385 253 166 68 126 163 176 253 336 337 584 650 732 893 932 939 878 859 632 561 489 303 292 148 113
21 13 11 16 17 21 23 22 25 40 28 7 3 49 216 316 459 448 460 504 413 335 238 100 137 164 236 375 519 799 1115 1223 1203 957 909 726 622 471 473 278 129 56 17
0 0 0 0 3 5 10 12 5 2 0 15 27 121 216 257 297 474 511 539 596 527 395 343 200 144 570 658 913 1101 1383 1321 977 906 765 623 457 421 372 471 58 1 0
0 0 0 0 0 0 0 5 25 44 32 15 15 18 75 143 187 332 355 326 450 551 530 460 356 355 579 841 1354 1463 1361 1097 911 754 617 548 399 318 274 33 0 0 0
0 0 0 0 0 0 0 0 0 0 0 2 17 31 41 57 113 171 118 39 69 34 32 65 151 33 200 778 862 1034 1012 928 792 673 604 531 322 240 47 25 0 0 0
0 0 0 0 2 5 5 0 1 5 2 4 0 22 45 76 78 48 36 72 80 154 35 0 0 190 354 464 665 697 676 634 496 622 497 274 204 88 19 0 0 0 0
0 3 3 0 2 7 3 1 2 1 5 1 1 2 1 64 57 20 45 41 24 0 1 6 89 238 282 480 434 348 467 433 529 360 178 92 39 3 0 0 0 0 0
CIN
-122 -115 -110 -112 -78 -50 -49 -41 -30 -16 -21 -21 -44 -64 -51 -44 -49 -26 -14 -16 -31 -30 -33 -28 -33 -31 -23 -25 -25 -12 -28 -27 -16 -21 -4 -21 -16 -10 -39 -42 -70 -55 -27
-140 -120 -107 -95 -60 -40 -31 -30 -18 -15 -18 -9 -19 -15 -33 -26 -36 -31 -13 -12 -19 -12 -14 -23 -31 -46 -30 -37 -26 -14 -28 -33 -4 -9 -17 -2 -14 -15 -9 -65 -62 -101 -90
-160 -136 -78 -68 -70 -27 -16 -15 -14 -10 -10 -19 -266 -42 -41 -31 -25 -15 -14 -12 -20 -27 -22 -9 -15 -21 -31 -28 -18 -27 -27 -10 -8 -10 -23 -15 -2 -12 -3 -9 -73 -67 -100
-66 -62 -47 -50 -32 -14 -6 -6 -6 -13 -20 -35 -67 -115 -73 -102 -89 -49 -48 -71 -73 -91 -85 -56 -9 -21 -18 -37 -31 -19 -9 -11 -9 -10 -11 -21 -4 -26 -13 -9 -35 -67 -82
-79 -98 -81 -56 -31 -18 -17 -28 -51 -105 -101 -31 -29 -28 -34 -99 -139 -97 -78 -74 -143 -141 -130 -172 -54 -14 -22 -25 -19 -12 -13 -12 -8 -5 -9 -22 -14 -8 -34 -49 -29 -44 -64
-44 -36 -58 -45 -29 -34 -9 -41 -187 -71 -39 -22 -33 -37 -67 -123 -138 -29 -37 -53 -96 -106 -161 -218 -112 -57 -37 -20 -28 -18 -23 -10 -27 -19 -9 -8 -18 -10 -17 -23 -30 -22 -20
-48 -24 -20 -15 -5 -42 -51 -34 -11 -8 -19 -32 -37 -68 -98 -181 -176 -153 -127 -250 -448 -145 -269 -345 -361 -323 -40 -19 -33 -23 -13 -8 -6 -15 -27 -18 -6 -6 -6 -6 -11 -13 -11
-17 -13 -16 -18 -2 -0 -15 -16 -22 -73 -238 -147 -230 -425 -38 -0 -0 -0 -0 -633 -441 -142 -105 -204 -265 -246 -75 -62 -5 -8 -9 -14 -11 -21 -31 -36 -32 -32 -26 -21 -14 -20 -25
-8 -19 -20 -22 -14 -6 -10 -33 -47 -275 -366 -465 -491 -650 -530 -0 -0 -0 -130 -0 -0 -251 -253 -90 -85 -81 -70 -52 -8 -24 -14 -13 -15 -15 -33 -49 -11 -18 -19 -10 -9 -10 -17
-20 -84 -65 -67 -50 -10 -4 -5 -23 -51 -89 -378 -470 -303 -483 -216 -70 -145 -154 -157 -154 -189 -102 -294 -135 -47 -32 -37 -6 -20 -30 -52 -32 -11 -40 -54 -59 -59 -55 -92 -53 -10 -6
-45 -42 -33 -26 -85 -40 -43 -23 -13 -13 -33 -36 -109 -265 -167 -168 -124 -115 -133 -159 -159 -164 -181 -177 -103 -25 -16 -11 -15 -17 -0 -20 -32 -45 -32 -28 -42 -39 -51 -48 -64 -39 -9
-242 -167 -238 -214 -190 -161 -116 -73 -18 -21 -12 -14 -33 -74 -75 -79 -101 -133 -140 -133 -130 -127 -139 -183 -119 -88 -68 -41 -13 -3 -15 -32 -176 -21 -55 -31 -41 -56 -50 -48 -39 -16 -21
-234 -278 -300 -241 -205 -174 -168 -168 -148 -50 -2 -9 -31 -48 -83 -120 -107 -157 -142 -163 -141 -113 -197 -216 -232 -145 -102 -69 -67 -51 -15 -10 -13 -28 -16 -22 -61 -55 -94 -64 -54 -21 -21
-125 -113 -138 -170 -182 -173 -167 -153 -148 -171 -199 -25 -10 -21 -44 -62 -72 -82 -80 -85 -82 -127 -114 -258 -205 -158 -140 -117 -90 -71 -41 -7 -0 -1 -10 -16 -78 -49 -43 -43 -19 -12 -10
-0 -190 -264 -263 -164 -68 -247 -188 -170 -165 -125 -133 -86 -18 -6 -13 -13 -19 -93 -67 -58 -65 -88 -215 -130 -116 -212 -175 -110 -67 -39 -29 -6 -1 -7 -11 -39 -45 -46 -24 -48 -45 -52
-0 -0 -0 -0 -0 -0 -0 -0 -66 -169 -117 -22 -26 -26 -28 -28 -3 -9 -19 -69 -45 -47 -111 -80 -66 -85 -122 -178 -150 -102 -40 -27 -29 -13 -8 -11 -29 -53 -35 -44 -57 -97 -107
-20 -14 -0 -0 -0 -1 -3 -0 -0 -0 -5 -80 -3 -68 -46 -0 -0 -39 -2 -2 -6 -99 -11 -31 -87 -73 -74 -108 -124 -101 -64 -72 -47 -28 -25 -0 -19 -15 -43 -69 -50 -98 -97
-11 -19 -8 -2 -8 -7 -5 -5 -7 -3 -1 -0 -126 -56 -111 -91 -95 -68 -57 -22 -18 -19 -1 -20 -11 -141 -118 -96 -81 -75 -49 -29 -36 -29 -22 -23 -24 -18 -31 -66 -68 -119 -88
-12 -23 -18 -13 -6 -5 -2 -2 -5 -4 -0 -17 -74 -72 -26 -42 -33 -69 -79 -74 -124 -131 -94 -41 -10 -11 -12 -179 -107 -84 -71 -45 -13 -8 -10 -18 -13 -0 -28 -25 -46 -52 -32
-1 -0 -0 -0 -0 -0 -7 -4 -12 -3 -0 -0 -184 -45 -15 -12 -4 -6 -3 -6 -6 -33 -120 -86 -67 -39 -22 -56 -151 -125 -78 -30 -9 -9 -8 -5 -11 -6 -12 -29 -27 -83 -68
-2 -1 -2 -3 -4 -2 -1 -7 -13 -3 -1 -0 -5 -99 -10 -1 -5 -15 -14 -7 -9 -10 -6 -140 -102 -119 -151 -164 -157 -102 -38 -5 -0 -18 -19 -23 -14 -15 -3 -24 -61 -36 -116
-0 -0 -0 -0 -2 -1 -1 -0 -0 -0 -0 -22 -68 -19 -19 -14 -22 -18 -25 -29 -14 -14 -18 -21 -48 -80 -84 -98 -103 -55 -31 -13 -31 -28 -19 -18 -6 -0 -0 -0 -31 -0 -0
-0 -0 -0 -0 -0 -0 -0 -0 -2 -3 -1 -0 -1 -4 -8 -10 -21 -41 -39 -45 -57 -34 -29 -22 -39 -29 -14 -14 -30 -20 -21 -28 -23 -31 -2 -18 -0 -0 -0 -16 -0 -0 -0
-0 -0 -0 -0 -0 -0 -0 -0 -0 -0 -0 -0 -0 -1 -7 -11 -12 -22 -48 -52 -10 -18 -38 -123 -35 -114 -95 -10 -30 -20 -24 -8 -5 -0 -4 -2 -0 -0 -6 -22 -1 -0 -0
-0 -0 -0 -0 -0 -0 -0 -1 -0 -11 -0 -0 -0 -1 -2 -5 -13 -27 -47 -54 -48 -21 -56 -0 -5 -26 -27 -20 -22 -10 -2 -0 -1 -0 -0 -0 -0 -3 -23 -0 -0 -0 -0
-0 -0 -0 -0 -0 -0 -0 -0 -0 -0 -0 -0 -0 -0 -1 -0 -0 -32 -31 -27 -28 -0 -46 -4 -54 -1 -11 -14 -0 -0 -3 -0 -0 -0 -0 -2 -11 -8 -0 -0 -0 -0 -0
Wind_Speed
31 33 33 32 38 40 38 29 29 29 29 27 30 26 27 23 22 22 21 19 17 15 12 12 9 11 13 12 11 12 10 5 3 5 7 9 15 18 21 16 14 11 8
33 32 37 38 43 43 42 36 31 28 24 25 36 37 24 18 17 18 15 13 16 18 13 13 9 10 8 11 13 8 1 3 3 4 4 4 12 15 20 17 15 16 18
33 40 43 46 48 45 40 34 27 24 29 34 45 nan 20 20 13 14 14 17 19 18 16 16 11 10 8 8 8 4 4 5 3 2 3 3 9 10 14 15 16 16 17
43 41 42 47 50 52 44 31 28 27 30 36 36 nan nan 20 24 19 17 25 23 25 19 11 10 8 9 5 5 5 6 4 3 1 2 4 6 9 11 12 15 15 19
41 35 41 45 47 47 38 28 25 29 27 24 28 30 nan 22 14 7 19 21 23 20 18 13 9 9 10 4 8 6 3 4 5 2 1 1 4 5 10 11 15 13 15
43 42 45 44 44 41 29 25 25 30 29 30 26 20 16 21 20 16 20 22 24 22 22 16 19 21 22 7 6 1 3 4 4 4 2 3 2 5 7 12 14 13 9
43 39 39 37 39 36 38 34 34 32 33 33 30 29 26 24 23 20 19 18 22 22 29 31 26 19 16 11 7 2 1 6 7 7 5 6 7 7 9 8 8 9 12
39 41 40 36 44 46 42 36 34 34 29 33 30 30 nan nan nan nan nan nan nan nan 18 28 28 24 18 13 12 11 8 6 5 7 8 7 11 10 12 12 9 8 12
37 40 43 44 46 41 36 35 31 27 31 29 nan nan nan nan nan nan 28 nan nan nan nan 22 27 22 18 12 16 16 16 14 13 5 7 10 11 13 14 15 13 15 15
36 38 40 41 39 36 36 34 34 34 32 30 27 nan 29 nan nan 16 16 16 13 10 nan 15 27 19 14 24 34 37 31 25 25 18 13 15 16 18 21 22 21 20 21
34 33 33 35 34 31 30 33 35 33 34 33 29 26 25 26 26 25 21 19 12 8 9 12 23 30 41 33 36 38 nan nan nan 30 25 12 17 21 23 25 19 25 25
38 36 34 34 34 34 32 32 33 35 35 33 34 30 30 27 25 25 32 25 22 17 15 19 27 35 37 32 28 25 18 21 nan 35 9 7 19 22 28 26 28 28 29
36 34 35 35 35 34 35 34 33 35 37 35 36 33 29 29 32 29 32 29 24 21 21 26 31 36 31 31 27 16 25 26 27 23 27 22 25 26 31 32 32 34 33
35 34 35 37 36 39 42 41 41 40 40 40 42 39 37 37 35 35 37 38 31 26 26 27 31 37 37 33 33 35 35 34 31 23 23 29 33 34 35 34 35 37 35
nan nan nan nan nan nan nan nan nan nan 45 44 44 45 46 41 39 40 37 40 40 35 39 36 33 34 35 38 39 36 35 36 35 32 31 34 35 39 37 38 38 39 37
nan nan nan nan nan nan nan nan nan nan nan nan nan nan nan 46 46 46 48 49 48 49 45 39 36 35 34 34 34 31 30 29 32 34 38 37 38 39 39 37 39 39 nan
nan nan nan nan nan nan nan nan nan nan nan nan nan nan nan nan nan nan 47 48 48 53 48 43 39 36 35 38 36 33 29 29 34 36 35 36 38 38 39 38 38 37 32
nan nan nan nan nan nan nan nan nan nan nan nan nan 37 nan nan nan nan nan nan nan 52 50 45 41 41 41 40 39 38 35 33 34 36 38 37 36 38 38 39 36 35 32
nan nan nan nan nan nan nan nan nan nan nan nan 34 36 38 48 48 49 nan nan nan nan 50 48 45 43 43 42 39 37 33 32 33 39 39 39 38 39 34 34 34 35 35
nan nan nan nan nan nan nan nan nan nan nan nan nan 39 45 54 51 50 46 44 41 nan 42 46 45 42 41 42 41 40 41 35 34 38 40 37 36 35 35 34 32 35 35
nan nan nan nan nan nan nan nan nan nan nan nan nan nan 36 43 42 43 43 43 41 37 38 43 45 44 45 46 47 41 38 34 37 39 39 36 35 33 33 31 33 nan nan
nan nan nan nan nan nan nan nan nan nan nan nan nan 40 34 39 38 39 38 36 36 38 37 36 38 38 38 37 35 33 33 36 38 40 36 38 34 35 34 34 nan nan nan
nan nan nan nan nan nan nan nan nan nan nan nan nan nan nan 32 30 32 34 32 34 37 39 39 37 38 34 31 35 36 35 35 35 39 32 36 35 33 34 nan nan nan nan
nan nan nan nan nan nan nan nan nan nan nan nan nan nan nan nan 38 34 31 nan nan nan nan nan 37 nan 37 37 43 40 36 39 35 31 35 37 34 35 nan nan nan nan nan
nan nan nan nan nan nan nan nan nan nan nan nan nan nan nan nan nan nan nan nan nan 34 nan nan nan 48 54 54 47 36 36 35 30 35 35 34 34 nan nan nan nan nan nan
nan nan nan nan nan nan nan nan nan nan nan nan nan nan nan nan nan nan nan nan nan nan nan nan nan 33 34 33 36 35 41 40 36 36 33 nan nan nan nan nan nan nan nan
Wind_Direction
329 333 328 332 337 340 341 338 329 325 327 315 311 281 280 282 284 293 289 288 289 280 277 285 288 293 291 298 308 305 311 302 77 100 57 50 26 14 19 22 26 14 321
324 326 335 329 330 333 332 325 324 326 322 279 270 246 232 274 281 278 273 275 276 274 267 263 269 270 285 296 289 273 284 316 287 84 80 59 27 25 20 23 33 31 20
311 320 320 325 325 328 332 328 316 319 306 299 295 nan 212 203 232 265 267 259 248 252 259 264 257 248 237 273 269 226 238 280 293 335 82 23 22 8 11 30 38 47 43
304 308 312 316 318 319 323 323 322 321 315 314 324 nan nan 253 213 247 282 285 281 254 242 245 254 223 231 226 235 253 238 233 280 307 51 34 1 10 358 22 40 40 45
290 296 306 310 311 315 319 324 327 324 331 316 332 329 nan 282 336 342 311 314 298 270 258 239 216 200 192 184 224 216 249 257 259 273 108 28 352 358 6 22 36 38 46
285 287 291 300 306 312 315 327 327 311 312 320 333 325 320 324 326 342 318 327 325 297 270 248 245 217 168 158 138 136 266 261 274 283 308 307 20 349 347 10 11 0 26
288 291 295 298 307 311 307 306 312 314 310 309 311 310 314 311 321 345 341 308 329 322 318 278 221 224 189 191 187 116 320 336 312 295 275 296 295 321 324 334 350 339 341
284 290 291 293 300 304 304 303 297 303 309 301 306 307 nan nan nan nan nan nan nan nan 298 282 238 207 196 193 222 231 253 281 294 285 301 301 301 312 318 318 327 329 315
280 290 294 296 297 297 301 303 300 299 305 303 nan nan nan nan nan nan 291 nan nan nan nan 268 228 202 183 192 232 234 237 233 238 279 303 322 327 327 318 297 305 307 295
276 276 276 277 279 292 301 301 299 298 298 298 301 nan 307 nan nan 319 272 274 278 282 nan 297 199 188 201 227 247 234 217 223 223 220 228 251 279 298 306 291 295 308 306
278 274 272 272 275 281 286 290 293 296 297 299 302 300 303 306 310 324 325 289 276 263 276 229 251 221 240 261 263 276 nan nan nan 229 201 241 273 283 292 312 311 306 305
279 279 279 279 279 278 277 279 287 293 294 297 298 296 295 293 302 295 310 314 296 274 249 239 234 236 238 259 265 296 303 278 nan 289 358 327 289 289 290 301 305 306 303
275 277 281 282 285 284 284 283 280 284 290 292 292 289 290 288 287 302 297 304 301 281 255 244 250 249 248 259 281 277 275 280 293 310 311 300 287 296 290 289 290 294 300
278 281 283 284 283 286 289 289 289 288 286 285 286 287 282 274 274 275 278 280 280 276 266 258 255 259 262 255 253 268 276 281 284 285 284 285 279 277 282 285 290 294 298
nan nan nan nan nan nan nan nan nan nan 290 286 284 282 280 278 274 268 270 271 274 276 268 264 260 258 255 257 259 260 264 270 279 278 283 280 277 274 276 280 283 287 295
nan nan nan nan nan nan nan nan nan nan nan nan nan nan nan 283 282 277 270 268 265 272 261 260 257 259 261 263 264 266 267 270 273 274 271 274 276 273 277 281 282 283 nan
nan nan nan nan nan nan nan nan nan nan nan nan nan nan nan nan nan nan 282 276 270 262 259 259 259 258 258 262 262 264 266 269 271 279 279 272 276 273 278 279 279 280 285
nan nan nan nan nan nan nan nan nan nan nan nan nan 271 nan nan nan nan nan nan nan 256 258 260 258 257 258 256 256 257 256 258 263 271 276 277 278 274 271 279 282 284 284
nan nan nan nan nan nan nan nan nan nan nan nan 270 267 266 262 271 273 nan nan nan nan 255 254 257 258 258 259 257 257 257 256 257 262 267 272 274 276 276 280 281 283 280
nan nan nan nan nan nan nan nan nan nan nan nan nan 272 269 269 267 268 268 269 269 nan 254 251 253 255 256 258 260 264 265 261 251 250 259 263 267 271 272 278 276 273 269
nan nan nan nan nan nan nan nan nan nan nan nan nan nan 276 269 268 266 264 265 267 270 266 251 246 249 255 261 266 262 257 257 246 245 255 260 263 270 271 269 267 nan nan
nan nan nan nan nan nan nan nan nan nan nan nan nan 279 276 266 262 259 257 256 254 256 257 256 252 251 253 257 256 250 251 256 253 248 250 254 258 264 268 269 nan nan nan
nan nan nan nan nan nan nan nan nan nan nan nan nan nan nan 274 268 264 259 256 252 254 255 254 251 242 239 246 244 251 257 264 257 250 254 258 261 262 268 nan nan nan nan
nan nan nan nan nan nan nan nan nan nan nan nan nan nan nan nan 273 269 266 nan nan nan nan nan 240 nan 240 236 239 241 247 254 249 248 254 253 256 264 nan nan nan nan nan
nan nan nan nan nan nan nan nan nan nan nan nan nan nan nan nan nan nan nan nan nan 250 nan nan nan 252 236 230 224 235 251 244 237 242 244 251 260 nan nan nan nan nan nan
nan nan nan nan nan nan nan nan nan nan nan nan nan nan nan nan nan nan nan nan nan nan nan nan nan 231 222 224 236 237 228 230 235 243 247 nan nan nan nan nan nan nan nan